St. Cloud, MN

2:47 AM CDT on June 29, 2017 (GMT -0500)
Saint Cloud Regional

Weather History for KSTC - April, 2014

Change the Weather History Date:

Thursday, April 3, 2014

  Actual Average Record
Temperature  
Mean Temperature 32 °F 38 °F  
Max Temperature 36 °F 49 °F 72 °F (1929)
Min Temperature 27 °F 27 °F 2 °F (1975)
Degree Days  
Heating Degree Days 33 27  
Month to date heating degree days 108 82  
Since 1 July heating degree days 8624 7632  
Cooling Degree Days 0 0  
Month to date cooling degree days 0 0  
Year to date cooling degree days 0 0  
Moisture  
Dew Point 26 °F    
Average Humidity 71    
Maximum Humidity 85    
Minimum Humidity 56    
Precipitation  
Precipitation 0.22 in 0.07 in 1.05 in (1905)
Month to date precipitation 0.26 0.21  
Year to date precipitation 3.97 3.00  
Snow  
Snow 2.00 in 0.20 in 7.00 in (1937)
Month to date snowfall 2.4 0.5  
Since 1 July snowfall 65.9 43.2  
Snow Depth 2.00 in    
Sea Level Pressure  
Sea Level Pressure 29.94 in    
Wind  
Wind Speed 10 mph (NE)    
Max Wind Speed 16 mph    
Max Gust Speed 23 mph    
Visibility 5 miles    
Events Fog , Snow    
T = Trace of Precipitation, MM = Missing Value Source: NWS Daily Summary

Daily Weather History Graph

Daily Weather History Graph

Search for Another Location

Airport or City:

Trip Planner

Search our weather history database for the weather conditions in past years. The results will help you decide how hot, cold, wet, or windy it might be!

Date:

Astronomy

Apr. 03, 2014 Rise Set
Actual Time 6:52 AM CDT 7:47 PM CDT
Civil Twilight 6:22 AM CDT 8:17 PM CDT
Nautical Twilight 5:46 AM CDT 8:53 PM CDT
Astronomical Twilight 5:09 AM CDT 9:31 PM CDT
Moon 9:12 AM CDT (4/3) No Moon Set
Length of Visible Light 13h 54m
Length of Day
12h 54m
Waxing Crescent, 17% of the Moon is Illuminated
Apr 3
Waxing Crescent
Apr 7
First Quarter
Apr 15
Full
Apr 22
Last Quarter
Apr 29
New

Hourly Weather History & Observations

Time (CDT) Temp. Windchill Dew Point Humidity Pressure Visibility Wind Dir Wind Speed Gust Speed Precip Events Conditions
12:53 AM 36.0 °F 29.6 °F 24.1 °F 62% 30.13 in 10.0 mi ENE 8.1 mph - N/A   Overcast
1:53 AM 36.0 °F 28.5 °F 21.9 °F 57% 30.11 in 10.0 mi ENE 10.4 mph - N/A   Overcast
2:53 AM 35.1 °F 25.5 °F 21.9 °F 59% 30.06 in 10.0 mi ENE 15.0 mph 23.0 mph N/A   Overcast
3:53 AM 35.1 °F 28.6 °F 23.0 °F 61% 30.06 in 10.0 mi ENE 8.1 mph - N/A   Overcast
4:53 AM 34.0 °F 26.0 °F 23.0 °F 64% 30.06 in 10.0 mi ENE 10.4 mph - N/A   Overcast
5:53 AM 34.0 °F 28.0 °F 24.1 °F 67% 30.05 in 10.0 mi ENE 6.9 mph - N/A   Overcast
6:53 AM 34.0 °F 28.0 °F 23.0 °F 64% 30.05 in 10.0 mi ENE 6.9 mph - N/A   Overcast
7:53 AM 35.1 °F 28.6 °F 23.0 °F 61% 30.05 in 10.0 mi ENE 8.1 mph - N/A   Overcast
8:35 AM 35.6 °F 28.6 °F 24.8 °F 65% 29.99 in 7.0 mi ENE 9.2 mph - 0.00 in Snow Light Snow
8:53 AM 34.0 °F 26.0 °F 25.0 °F 70% 30.04 in 4.0 mi ENE 10.4 mph - 0.00 in Snow Light Snow
9:46 AM 33.8 °F 27.0 °F 26.6 °F 75% 29.96 in 3.0 mi East 8.1 mph - 0.00 in   Haze
9:53 AM 33.1 °F 26.1 °F 28.0 °F 82% 30.02 in 4.0 mi East 8.1 mph 17.3 mph 0.00 in   Haze
10:53 AM 33.8 °F 26.4 °F 28.4 °F 81% 29.96 in 6.0 mi ENE 9.2 mph - N/A   Haze
11:27 AM 33.8 °F 26.4 °F 28.4 °F 81% 29.95 in 3.0 mi ENE 9.2 mph - N/A   Overcast
11:53 AM 34.0 °F 25.0 °F 28.9 °F 82% 30.00 in 7.0 mi NE 12.7 mph 21.9 mph N/A   Overcast
12:02 PM 33.8 °F 26.4 °F 28.4 °F 81% 29.94 in 10.0 mi NE 9.2 mph 21.9 mph N/A   Overcast
12:13 PM 33.8 °F 25.3 °F 28.4 °F 81% 29.93 in 10.0 mi ENE 11.5 mph 19.6 mph N/A   Overcast
12:27 PM 33.8 °F 24.8 °F 28.4 °F 81% 29.93 in 10.0 mi ENE 12.7 mph 19.6 mph N/A   Overcast
12:53 PM 34.0 °F 25.0 °F 28.0 °F 79% 29.99 in 10.0 mi NE 12.7 mph 20.7 mph N/A   Overcast
1:53 PM 34.0 °F 25.0 °F 28.0 °F 79% 29.97 in 10.0 mi ENE 12.7 mph - N/A   Overcast
2:40 PM 35.6 °F 28.6 °F 28.4 °F 75% 29.90 in 10.0 mi ENE 9.2 mph 17.3 mph N/A   Overcast
2:53 PM 34.0 °F 26.0 °F 28.0 °F 79% 29.95 in 10.0 mi ENE 10.4 mph 17.3 mph N/A   Overcast
3:17 PM 33.8 °F 23.9 °F 28.4 °F 81% 29.89 in 10.0 mi NE 15.0 mph 20.7 mph N/A   Overcast
3:53 PM 34.0 °F 26.6 °F 28.0 °F 79% 29.93 in 9.0 mi NE 9.2 mph 17.3 mph N/A   Overcast
4:32 PM 33.8 °F 27.0 °F 28.4 °F 81% 29.87 in 5.0 mi ENE 8.1 mph - 0.00 in Snow Light Snow
4:43 PM 33.8 °F 26.4 °F 28.4 °F 81% 29.87 in 2.5 mi NE 9.2 mph - 0.00 in Snow Light Snow
4:53 PM 33.1 °F 26.9 °F 28.0 °F 82% 29.94 in 3.0 mi NE 6.9 mph - 0.00 in Snow Light Snow
4:56 PM 33.8 °F 25.8 °F 28.4 °F 81% 29.88 in 2.5 mi NNE 10.4 mph - 0.00 in Snow Light Snow
5:03 PM 32.0 °F 25.6 °F 28.4 °F 87% 29.87 in 0.8 mi NE 6.9 mph - 0.00 in Snow Light Snow
5:10 PM 32.0 °F 24.8 °F 28.4 °F 87% 29.88 in 0.5 mi NE 8.1 mph - 0.01 in Fog , Snow Light Snow
5:31 PM 32.0 °F 22.5 °F 26.6 °F 80% 29.87 in 1.5 mi NE 12.7 mph 23.0 mph 0.02 in Snow Light Snow
5:43 PM 32.0 °F 24.2 °F 28.4 °F 87% 29.88 in 2.0 mi NE 9.2 mph - 0.02 in Snow Light Snow
5:50 PM 32.0 °F 23.6 °F 26.6 °F 80% 29.88 in 2.0 mi NE 10.4 mph - 0.02 in Snow Light Snow
5:53 PM 32.0 °F 23.0 °F 27.0 °F 82% 29.94 in 2.0 mi NNE 11.5 mph - 0.02 in Snow Light Snow
6:04 PM 30.2 °F 20.8 °F 26.6 °F 86% 29.89 in 4.0 mi NE 11.5 mph 18.4 mph 0.00 in Snow Light Snow
6:11 PM 30.2 °F 20.8 °F 26.6 °F 86% 29.89 in 1.8 mi NE 11.5 mph 18.4 mph 0.00 in Snow Light Snow
6:15 PM 30.2 °F 20.8 °F 26.6 °F 86% 29.89 in 1.0 mi NE 11.5 mph - 0.00 in Snow Light Snow
6:23 PM 30.2 °F 20.8 °F 26.6 °F 86% 29.89 in 0.8 mi NE 11.5 mph 18.4 mph 0.01 in Snow Light Snow
6:46 PM 30.2 °F 23.4 °F 26.6 °F 86% 29.90 in 1.2 mi NNE 6.9 mph - 0.02 in Snow Light Snow
6:53 PM 30.0 °F 21.1 °F 26.1 °F 85% 29.97 in 1.5 mi NE 10.4 mph 16.1 mph 0.02 in Snow Light Snow
7:06 PM 30.2 °F 21.3 °F 26.6 °F 86% 29.91 in 1.8 mi NNE 10.4 mph - 0.00 in Snow Light Snow
7:15 PM 30.2 °F 21.9 °F 24.8 °F 80% 29.90 in 1.0 mi NNE 9.2 mph - 0.00 in Snow Light Snow
7:23 PM 30.2 °F 21.9 °F 26.6 °F 86% 29.90 in 0.8 mi NNE 9.2 mph - 0.01 in Snow Light Snow
7:45 PM 30.2 °F 19.8 °F 26.6 °F 86% 29.89 in 0.5 mi NNE 13.8 mph 18.4 mph 0.02 in Fog , Snow Light Snow
7:53 PM 28.9 °F 18.6 °F 25.0 °F 85% 29.95 in 0.8 mi NNE 12.7 mph 20.7 mph 0.03 in Snow Light Snow
8:00 PM 28.4 °F 19.7 °F 24.8 °F 86% 29.89 in 1.0 mi NNE 9.2 mph 20.7 mph 0.00 in Snow Light Snow
8:12 PM 28.4 °F 20.4 °F 26.6 °F 93% 29.89 in 0.8 mi NNE 8.1 mph - 0.01 in Snow Light Snow
8:53 PM 28.9 °F 19.8 °F 25.0 °F 85% 29.94 in 1.2 mi NNE 10.4 mph - 0.04 in Snow Light Snow
10:53 PM 28.0 °F 18.6 °F 25.0 °F 88% 29.91 in 1.0 mi NNE 10.4 mph - 0.04 in Snow Light Snow
11:06 PM 28.4 °F 19.7 °F 24.8 °F 86% 29.84 in 0.8 mi NNE 9.2 mph 16.1 mph 0.00 in Snow Light Snow
11:12 PM 28.4 °F 18.5 °F 24.8 °F 86% 29.84 in 1.0 mi NNE 11.5 mph - 0.01 in Snow Light Snow
11:25 PM 28.4 °F 19.1 °F 24.8 °F 86% 29.84 in 1.2 mi NNE 10.4 mph - 0.01 in Snow Light Snow
11:53 PM 28.0 °F 20.0 °F 24.1 °F 85% 29.90 in 1.0 mi North 8.1 mph - 0.02 in Snow Light Snow